| time (UTC) | temp F | wind direction | speed knots | gust knots | rain 1hr in | rain 24hr in | rain mn in | humidity % | barometer mb |
| 20260510201029 | 75 | 171 | 2.6 | 6.1 | 0.00 | 0.00 | 0.00 | 17 | 1021.0 |
| 20260510200529 | 74 | 198 | 2.6 | 7.0 | 0.00 | 0.00 | 0.00 | 18 | 1021.0 |
| 20260510200030 | 73 | 310 | 0.9 | 5.2 | 0.00 | 0.00 | 0.00 | 16 | 1021.0 |
| 20260510195530 | 73 | 183 | 2.6 | 5.2 | 0.00 | 0.00 | 0.00 | 18 | 1021.0 |
| 20260510195030 | 73 | 114 | 3.5 | 7.0 | 0.00 | 0.00 | 0.00 | 17 | 1021.0 |
| 20260510194531 | 72 | 353 | 7.8 | 11.3 | 0.00 | 0.00 | 0.00 | 17 | 1021.0 |
| 20260510194031 | 73 | 143 | 7.8 | 15.6 | 0.00 | 0.00 | 0.00 | 16 | 1021.0 |
| 20260510193529 | 73 | 174 | 4.3 | 11.3 | 0.00 | 0.00 | 0.00 | 17 | 1021.0 |
| 20260510193032 | 73 | 158 | 5.2 | 7.8 | 0.00 | 0.00 | 0.00 | 16 | 1021.0 |
| 20260510192530 | 72 | 318 | 2.6 | 6.1 | 0.00 | 0.00 | 0.00 | 17 | 1021.0 |
| 20260510192031 | 72 | 336 | 5.2 | 7.8 | 0.00 | 0.00 | 0.00 | 15 | 1021.0 |
| 20260510191529 | 72 | 156 | 6.1 | 11.3 | 0.00 | 0.00 | 0.00 | 18 | 1022.0 |
| 20260510191030 | 72 | 167 | 3.5 | 9.6 | 0.00 | 0.00 | 0.00 | 19 | 1022.0 |
| 20260510190529 | 71 | 81 | 3.5 | 5.2 | 0.00 | 0.00 | 0.00 | 19 | 1022.0 |
| 20260510190029 | 71 | 149 | 4.3 | 8.7 | 0.00 | 0.00 | 0.00 | 17 | 1022.0 |
| 20260510185529 | 72 | 174 | 7.0 | 11.3 | 0.00 | 0.00 | 0.00 | 16 | 1022.0 |
| 20260510185029 | 72 | 328 | 3.5 | 7.0 | 0.00 | 0.00 | 0.00 | 19 | 1022.0 |
| 20260510184529 | 72 | 163 | 4.3 | 10.4 | 0.00 | 0.00 | 0.00 | 20 | 1022.0 |
| 20260510184030 | 72 | 328 | 3.5 | 7.0 | 0.00 | 0.00 | 0.00 | 17 | 1022.0 |
| 20260510183531 | 72 | 327 | 0.9 | 4.3 | 0.00 | 0.00 | 0.00 | 21 | 1022.0 |
| 20260510183029 | 71 | 182 | 1.7 | 5.2 | 0.00 | 0.00 | 0.00 | 24 | 1022.0 |
| 20260510182529 | 71 | 344 | 0.0 | 3.5 | 0.00 | 0.00 | 0.00 | 23 | 1022.0 |
| 20260510182029 | 71 | 155 | 2.6 | 4.3 | 0.00 | 0.00 | 0.00 | 22 | 1022.0 |
| 20260510181531 | 71 | 265 | 1.7 | 5.2 | 0.00 | 0.00 | 0.00 | 26 | 1022.0 |
| 20260510181030 | 70 | 187 | 1.7 | 5.2 | 0.00 | 0.00 | 0.00 | 25 | 1022.0 |
| 20260510180529 | 70 | 208 | 0.0 | 1.7 | 0.00 | 0.00 | 0.00 | 23 | 1022.0 |
| 20260510180030 | 69 | 202 | 0.9 | 4.3 | 0.00 | 0.00 | 0.00 | 26 | 1022.0 |
| 20260510175530 | 68 | 150 | 6.1 | 9.6 | 0.00 | 0.00 | 0.00 | 24 | 1022.0 |
| 20260510175030 | 69 | 340 | 2.6 | 7.0 | 0.00 | 0.00 | 0.00 | 22 | 1022.0 |
| 20260510174530 | 68 | 347 | 0.9 | 6.1 | 0.00 | 0.00 | 0.00 | 24 | 1023.0 |
| 20260510174029 | 68 | 149 | 5.2 | 9.6 | 0.00 | 0.00 | 0.00 | 23 | 1023.0 |
| 20260510173531 | 68 | 174 | 1.7 | 4.3 | 0.00 | 0.00 | 0.00 | 26 | 1023.0 |
| 20260510173031 | 68 | 126 | 3.5 | 7.0 | 0.00 | 0.00 | 0.00 | 25 | 1023.0 |
| 20260510172530 | 68 | 46 | 1.7 | 5.2 | 0.00 | 0.00 | 0.00 | 26 | 1023.0 |
| 20260510172029 | 68 | 69 | 3.5 | 7.0 | 0.00 | 0.00 | 0.00 | 26 | 1023.0 |
| 20260510171530 | 67 | 58 | 3.5 | 7.8 | 0.00 | 0.00 | 0.00 | 24 | 1023.0 |
| 20260510171030 | 66 | 355 | 2.6 | 7.0 | 0.00 | 0.00 | 0.00 | 29 | 1023.0 |
| 20260510170531 | 66 | 307 | 3.5 | 5.2 | 0.00 | 0.00 | 0.00 | 28 | 1023.0 |
| 20260510170032 | 65 | 7 | 3.5 | 6.1 | 0.00 | 0.00 | 0.00 | 30 | 1023.0 |
| 20260510165531 | 66 | 159 | 5.2 | 8.7 | 0.00 | 0.00 | 0.00 | 29 | 1023.0 |
| 20260510165031 | 66 | 150 | 4.3 | 7.8 | 0.00 | 0.00 | 0.00 | 29 | 1023.0 |
| 20260510164530 | 66 | 167 | 3.5 | 7.8 | 0.00 | 0.00 | 0.00 | 30 | 1023.0 |
| 20260510164029 | 65 | 314 | 1.7 | 4.3 | 0.00 | 0.00 | 0.00 | 29 | 1023.0 |
| 20260510163531 | 65 | 334 | 2.6 | 6.1 | 0.00 | 0.00 | 0.00 | 32 | 1023.0 |
| 20260510163029 | 65 | 235 | 2.6 | 3.5 | 0.00 | 0.00 | 0.00 | 29 | 1022.0 |
| 20260510162531 | 64 | 206 | 0.0 | 0.9 | 0.00 | 0.00 | 0.00 | 36 | 1023.0 |
| 20260510162029 | 64 | 158 | 0.0 | 0.0 | 0.00 | 0.00 | 0.00 | 33 | 1023.0 |
| 20260510161530 | 64 | 324 | 4.3 | 4.3 | 0.00 | 0.00 | 0.00 | 32 | 1023.0 |
| 20260510161030 | 63 | 331 | 0.0 | 0.0 | 0.00 | 0.00 | 0.00 | 34 | 1022.0 |
| 20260510160532 | 63 | 327 | 3.5 | 5.2 | 0.00 | 0.00 | 0.00 | 31 | 1022.0 |
| 20260510160031 | 63 | 323 | 1.7 | 3.5 | 0.00 | 0.00 | 0.00 | 33 | 1023.0 |
| 20260510155529 | 63 | 27 | 2.6 | 3.5 | 0.00 | 0.00 | 0.00 | 33 | 1022.0 |
| 20260510155032 | 63 | 145 | 3.5 | 6.1 | 0.00 | 0.00 | 0.00 | 32 | 1022.0 |
| 20260510154529 | 63 | 147 | 0.0 | 0.0 | 0.00 | 0.00 | 0.00 | 33 | 1023.0 |
| 20260510154030 | 63 | 320 | 1.7 | 3.5 | 0.00 | 0.00 | 0.00 | 31 | 1023.0 |
| 20260510153530 | 62 | 128 | 0.9 | 3.5 | 0.00 | 0.00 | 0.00 | 29 | 1023.0 |
| 20260510153031 | 62 | 61 | 0.9 | 2.6 | 0.00 | 0.00 | 0.00 | 29 | 1023.0 |
| 20260510152531 | 62 | 150 | 3.5 | 5.2 | 0.00 | 0.00 | 0.00 | 29 | 1023.0 |
| 20260510152030 | 61 | 116 | 0.9 | 3.5 | 0.00 | 0.00 | 0.00 | 30 | 1023.0 |
| 20260510151529 | 62 | 182 | 5.2 | 5.2 | 0.00 | 0.00 | 0.00 | 33 | 1023.0 |
| 20260510151029 | 62 | 144 | 3.5 | 5.2 | 0.00 | 0.00 | 0.00 | 31 | 1023.0 |
| 20260510150530 | 62 | 110 | 3.5 | 4.3 | 0.00 | 0.00 | 0.00 | 29 | 1023.0 |
| 20260510150029 | 61 | 22 | 0.0 | 0.9 | 0.00 | 0.00 | 0.00 | 31 | 1023.0 |
| 20260510145530 | 61 | 87 | 5.2 | 5.2 | 0.00 | 0.00 | 0.00 | 32 | 1023.0 |
| 20260510145029 | 61 | 110 | 1.7 | 3.5 | 0.00 | 0.00 | 0.00 | 35 | 1022.0 |
| 20260510144529 | 61 | 70 | 4.3 | 5.2 | 0.00 | 0.00 | 0.00 | 31 | 1022.0 |
| 20260510144029 | 61 | 79 | 4.3 | 7.0 | 0.00 | 0.00 | 0.00 | 30 | 1022.0 |
| 20260510143529 | 61 | 58 | 4.3 | 5.2 | 0.00 | 0.00 | 0.00 | 29 | 1022.0 |
| 20260510143030 | 60 | 358 | 0.0 | 0.9 | 0.00 | 0.00 | 0.00 | 33 | 1022.0 |
| 20260510142529 | 60 | 0 | 0.0 | 0.0 | 0.00 | 0.00 | 0.00 | 36 | 1022.0 |
| 20260510142029 | 61 | 43 | 1.7 | 1.7 | 0.00 | 0.00 | 0.00 | 32 | 1022.0 |
| 20260510141530 | 60 | 74 | 2.6 | 2.6 | 0.00 | 0.00 | 0.00 | 33 | 1022.0 |
| 20260510141029 | 59 | 67 | 2.6 | 3.5 | 0.00 | 0.00 | 0.00 | 33 | 1022.0 |
| 20260510140529 | 58 | 347 | 0.0 | 1.7 | 0.00 | 0.00 | 0.00 | 42 | 1022.0 |
| 20260510140029 | 57 | 339 | 0.9 | 3.5 | 0.00 | 0.00 | 0.00 | 47 | 1022.0 |
| 20260510135530 | 57 | 331 | 0.0 | 0.0 | 0.00 | 0.00 | 0.00 | 49 | 1022.0 |
| 20260510135030 | 57 | 331 | 2.6 | 3.5 | 0.00 | 0.00 | 0.00 | 48 | 1022.0 |
| 20260510134530 | 57 | 305 | 2.6 | 3.5 | 0.00 | 0.00 | 0.00 | 47 | 1022.0 |
| 20260510134029 | 57 | 0 | 0.0 | 0.0 | 0.00 | 0.00 | 0.00 | 42 | 1022.0 |
| 20260510133529 | 55 | 0 | 0.0 | 0.0 | 0.00 | 0.00 | 0.00 | 41 | 1022.0 |
| 20260510133029 | 54 | 0 | 0.0 | 0.0 | 0.00 | 0.00 | 0.00 | 43 | 1022.0 |
| 20260510132529 | 53 | 0 | 0.0 | 0.0 | 0.00 | 0.00 | 0.00 | 41 | 1022.0 |
| 20260510132029 | 52 | 0 | 0.0 | 0.9 | 0.00 | 0.00 | 0.00 | 41 | 1022.0 |
| 20260510131529 | 51 | 91 | 2.6 | 3.5 | 0.00 | 0.00 | 0.00 | 42 | 1022.0 |
| 20260510131029 | 49 | 24 | 0.9 | 1.7 | 0.00 | 0.00 | 0.00 | 45 | 1022.0 |
| 20260510130533 | 49 | 0 | 0.0 | 0.0 | 0.00 | 0.00 | 0.00 | 53 | 1022.0 |
| 20260510130031 | 49 | 59 | 0.0 | 0.0 | 0.00 | 0.00 | 0.00 | 56 | 1022.0 |
| 20260510125531 | 49 | 0 | 0.0 | 0.0 | 0.00 | 0.00 | 0.00 | 55 | 1022.0 |
| 20260510125029 | 49 | 0 | 0.0 | 0.0 | 0.00 | 0.00 | 0.00 | 50 | 1022.0 |
| 20260510124531 | 49 | 102 | 0.0 | 0.0 | 0.00 | 0.00 | 0.00 | 45 | 1021.0 |
| 20260510124031 | 50 | 0 | 0.0 | 0.0 | 0.00 | 0.00 | 0.00 | 46 | 1021.0 |
| 20260510123529 | 50 | 56 | 3.5 | 3.5 | 0.00 | 0.00 | 0.00 | 45 | 1021.0 |
| 20260510123030 | 50 | 64 | 3.5 | 3.5 | 0.00 | 0.00 | 0.00 | 44 | 1021.0 |
| 20260510122531 | 50 | 59 | 2.6 | 3.5 | 0.00 | 0.00 | 0.00 | 44 | 1021.0 |
| 20260510122029 | 50 | 70 | 0.9 | 3.5 | 0.00 | 0.00 | 0.00 | 43 | 1021.0 |
| 20260510121530 | 50 | 63 | 3.5 | 4.3 | 0.00 | 0.00 | 0.00 | 43 | 1021.0 |
| 20260510121029 | 51 | 86 | 0.0 | 0.9 | 0.00 | 0.00 | 0.00 | 41 | 1021.0 |
| 20260510120530 | 50 | 92 | 4.3 | 4.3 | 0.00 | 0.00 | 0.00 | 41 | 1021.0 |
| 20260510120031 | 50 | 69 | 4.3 | 4.3 | 0.00 | 0.00 | 0.00 | 39 | 1021.0 |
| 20260510115529 | 50 | 64 | 3.5 | 4.3 | 0.00 | 0.00 | 0.00 | 40 | 1021.0 |
| 20260510115029 | 49 | 77 | 2.6 | 3.5 | 0.00 | 0.00 | 0.00 | 39 | 1021.0 |
| 20260510114531 | 49 | 69 | 3.5 | 4.3 | 0.00 | 0.00 | 0.00 | 39 | 1021.0 |
| 20260510114031 | 48 | 43 | 2.6 | 5.2 | 0.00 | 0.00 | 0.00 | 43 | 1021.0 |
| 20260510113529 | 47 | 93 | 3.5 | 3.5 | 0.00 | 0.00 | 0.00 | 46 | 1021.0 |
| 20260510113029 | 47 | 60 | 4.3 | 6.1 | 0.00 | 0.00 | 0.00 | 46 | 1021.0 |
| 20260510112529 | 47 | 70 | 4.3 | 5.2 | 0.00 | 0.00 | 0.00 | 47 | 1021.0 |
| 20260510112031 | 47 | 92 | 3.5 | 3.5 | 0.00 | 0.00 | 0.00 | 49 | 1021.0 |
| 20260510111531 | 47 | 65 | 4.3 | 4.3 | 0.00 | 0.00 | 0.00 | 48 | 1021.0 |
| 20260510111033 | 47 | 90 | 3.5 | 4.3 | 0.00 | 0.00 | 0.00 | 50 | 1021.0 |
| 20260510110529 | 48 | 81 | 4.3 | 5.2 | 0.00 | 0.00 | 0.00 | 49 | 1021.0 |
| 20260510110030 | 49 | 127 | 3.5 | 6.1 | 0.00 | 0.00 | 0.00 | 47 | 1021.0 |
| 20260510105529 | 50 | 88 | 7.0 | 7.8 | 0.00 | 0.00 | 0.00 | 44 | 1021.0 |
| 20260510105030 | 51 | 85 | 0.0 | 1.7 | 0.00 | 0.00 | 0.00 | 41 | 1021.0 |
| 20260510104530 | 52 | 99 | 4.3 | 6.1 | 0.00 | 0.00 | 0.00 | 39 | 1021.0 |
| 20260510104029 | 53 | 104 | 5.2 | 6.1 | 0.00 | 0.00 | 0.00 | 36 | 1021.0 |
| 20260510103529 | 53 | 113 | 4.3 | 7.0 | 0.00 | 0.00 | 0.00 | 34 | 1021.0 |
| 20260510103030 | 53 | 73 | 6.1 | 8.7 | 0.00 | 0.00 | 0.00 | 34 | 1021.0 |
| 20260510102529 | 52 | 76 | 5.2 | 6.1 | 0.00 | 0.00 | 0.00 | 39 | 1021.0 |
| 20260510102029 | 51 | 73 | 3.5 | 4.3 | 0.00 | 0.00 | 0.00 | 42 | 1021.0 |
| 20260510101530 | 51 | 73 | 4.3 | 5.2 | 0.00 | 0.00 | 0.00 | 42 | 1021.0 |
| 20260510101029 | 51 | 70 | 3.5 | 3.5 | 0.00 | 0.00 | 0.00 | 40 | 1021.0 |
| 20260510100529 | 51 | 70 | 4.3 | 5.2 | 0.00 | 0.00 | 0.00 | 39 | 1021.0 |
| 20260510100029 | 51 | 67 | 3.5 | 4.3 | 0.00 | 0.00 | 0.00 | 38 | 1021.0 |
| 20260510095530 | 50 | 73 | 2.6 | 3.5 | 0.00 | 0.00 | 0.00 | 38 | 1021.0 |
| 20260510095029 | 51 | 89 | 0.9 | 3.5 | 0.00 | 0.00 | 0.00 | 37 | 1021.0 |
| 20260510094532 | 50 | 47 | 1.7 | 3.5 | 0.00 | 0.00 | 0.00 | 37 | 1021.0 |
| 20260510094029 | 50 | 43 | 1.7 | 2.6 | 0.00 | 0.00 | 0.00 | 37 | 1021.0 |
| 20260510093529 | 50 | 88 | 3.5 | 3.5 | 0.00 | 0.00 | 0.00 | 38 | 1020.0 |
| 20260510093029 | 50 | 72 | 4.3 | 5.2 | 0.00 | 0.00 | 0.00 | 37 | 1020.0 |
| 20260510092529 | 50 | 101 | 4.3 | 7.0 | 0.00 | 0.00 | 0.00 | 39 | 1020.0 |
| 20260510092030 | 50 | 72 | 1.7 | 3.5 | 0.00 | 0.00 | 0.00 | 39 | 1020.0 |
| 20260510091530 | 51 | 0 | 0.0 | 0.0 | 0.00 | 0.00 | 0.00 | 38 | 1020.0 |
| 20260510091029 | 51 | 16 | 0.0 | 0.9 | 0.00 | 0.00 | 0.00 | 37 | 1020.0 |
| 20260510090530 | 52 | 66 | 2.6 | 3.5 | 0.00 | 0.00 | 0.00 | 37 | 1020.0 |
| 20260510090029 | 52 | 93 | 4.3 | 4.3 | 0.00 | 0.00 | 0.00 | 36 | 1020.0 |
| 20260510085529 | 53 | 103 | 4.3 | 5.2 | 0.00 | 0.00 | 0.00 | 35 | 1020.0 |
| 20260510085029 | 53 | 102 | 2.6 | 3.5 | 0.00 | 0.00 | 0.00 | 32 | 1020.0 |
| 20260510084529 | 54 | 33 | 2.6 | 3.5 | 0.00 | 0.00 | 0.00 | 31 | 1020.0 |
| 20260510084029 | 54 | 34 | 1.7 | 4.3 | 0.00 | 0.00 | 0.00 | 28 | 1020.0 |
| 20260510083529 | 53 | 91 | 3.5 | 4.3 | 0.00 | 0.00 | 0.00 | 29 | 1020.0 |
| 20260510083031 | 51 | 56 | 7.0 | 7.0 | 0.00 | 0.00 | 0.00 | 32 | 1020.0 |
| 20260510082529 | 50 | 55 | 4.3 | 6.1 | 0.00 | 0.00 | 0.00 | 37 | 1020.0 |
| 20260510082031 | 50 | 65 | 4.3 | 5.2 | 0.00 | 0.00 | 0.00 | 40 | 1020.0 |
| 20260510081530 | 50 | 89 | 3.5 | 3.5 | 0.00 | 0.00 | 0.00 | 39 | 1020.0 |
| 20260510081029 | 49 | 92 | 2.6 | 5.2 | 0.00 | 0.00 | 0.00 | 39 | 1020.0 |
| 20260510080530 | 50 | 50 | 2.6 | 2.6 | 0.00 | 0.00 | 0.00 | 40 | 1020.0 |
| 20260510080030 | 50 | 13 | 0.9 | 0.9 | 0.00 | 0.00 | 0.00 | 42 | 1020.0 |
| 20260510075529 | 50 | 0 | 0.0 | 0.0 | 0.00 | 0.00 | 0.00 | 42 | 1020.0 |
| 20260510075029 | 51 | 65 | 0.9 | 2.6 | 0.00 | 0.00 | 0.00 | 40 | 1020.0 |
| 20260510074529 | 52 | 20 | 0.0 | 0.0 | 0.00 | 0.00 | 0.00 | 40 | 1020.0 |
| 20260510074030 | 52 | 91 | 1.7 | 3.5 | 0.00 | 0.00 | 0.00 | 36 | 1020.0 |
| 20260510073529 | 52 | 104 | 3.5 | 4.3 | 0.00 | 0.00 | 0.00 | 37 | 1020.0 |
| 20260510073029 | 53 | 0 | 0.0 | 0.0 | 0.00 | 0.00 | 0.00 | 34 | 1020.0 |
| 20260510072529 | 53 | 68 | 0.9 | 2.6 | 0.00 | 0.00 | 0.00 | 33 | 1020.0 |
| 20260510072029 | 53 | 93 | 3.5 | 3.5 | 0.00 | 0.00 | 0.00 | 32 | 1020.0 |
| 20260510071530 | 53 | 88 | 3.5 | 7.0 | 0.00 | 0.00 | 0.00 | 34 | 1020.0 |
| 20260510071031 | 53 | 93 | 3.5 | 5.2 | 0.00 | 0.00 | 0.00 | 35 | 1020.0 |
| 20260510070530 | 52 | 104 | 3.5 | 4.3 | 0.00 | 0.00 | 0.00 | 35 | 1020.0 |
| 20260510070030 | 52 | 91 | 3.5 | 4.3 | 0.00 | 0.00 | 0.00 | 40 | 1020.0 |
| 20260510065530 | 52 | 101 | 4.3 | 5.2 | 0.00 | 0.00 | 0.00 | 35 | 1020.0 |
| 20260510065029 | 52 | 74 | 0.0 | 0.9 | 0.00 | 0.00 | 0.00 | 39 | 1020.0 |
| 20260510064529 | 52 | 99 | 0.0 | 0.0 | 0.00 | 0.00 | 0.00 | 35 | 1019.0 |
| 20260510064030 | 52 | 102 | 4.3 | 5.2 | 0.00 | 0.00 | 0.00 | 35 | 1019.0 |
| 20260510063530 | 52 | 48 | 1.7 | 1.7 | 0.00 | 0.00 | 0.00 | 36 | 1019.0 |
| 20260510063029 | 52 | 28 | 3.5 | 4.3 | 0.00 | 0.00 | 0.00 | 35 | 1019.0 |
| 20260510062529 | 53 | 92 | 4.3 | 4.3 | 0.00 | 0.00 | 0.00 | 36 | 1019.0 |
| 20260510062030 | 53 | 98 | 0.0 | 0.0 | 0.00 | 0.00 | 0.00 | 34 | 1019.0 |
| 20260510061529 | 53 | 67 | 2.6 | 2.6 | 0.00 | 0.00 | 0.00 | 34 | 1019.0 |
| 20260510061029 | 53 | 96 | 4.3 | 4.3 | 0.00 | 0.00 | 0.00 | 33 | 1019.0 |
| 20260510060530 | 53 | 92 | 5.2 | 5.2 | 0.00 | 0.00 | 0.00 | 33 | 1019.0 |
| 20260510060029 | 54 | 101 | 3.5 | 3.5 | 0.00 | 0.00 | 0.00 | 30 | 1019.0 |
| 20260510055529 | 54 | 75 | 0.0 | 1.7 | 0.00 | 0.00 | 0.00 | 32 | 1019.0 |
| 20260510055029 | 54 | 0 | 0.0 | 0.0 | 0.00 | 0.00 | 0.00 | 28 | 1019.0 |
| 20260510054529 | 55 | 71 | 1.7 | 2.6 | 0.00 | 0.00 | 0.00 | 29 | 1019.0 |
| 20260510054030 | 55 | 0 | 0.0 | 0.0 | 0.00 | 0.00 | 0.00 | 28 | 1019.0 |
| 20260510053529 | 55 | 30 | 0.0 | 0.9 | 0.00 | 0.00 | 0.00 | 28 | 1019.0 |
| 20260510053030 | 55 | 0 | 0.0 | 0.0 | 0.00 | 0.00 | 0.00 | 29 | 1019.0 |
| 20260510052529 | 56 | 44 | 0.0 | 0.0 | 0.00 | 0.00 | 0.00 | 30 | 1019.0 |
| 20260510052030 | 56 | 58 | 0.9 | 2.6 | 0.00 | 0.00 | 0.00 | 31 | 1019.0 |
| 20260510051529 | 57 | 0 | 0.0 | 0.0 | 0.00 | 0.00 | 0.00 | 24 | 1019.0 |
| 20260510051029 | 57 | 0 | 0.0 | 0.0 | 0.00 | 0.00 | 0.00 | 23 | 1019.0 |
| 20260510050529 | 57 | 28 | 1.7 | 3.5 | 0.00 | 0.00 | 0.00 | 23 | 1019.0 |
| 20260510050029 | 57 | 18 | 3.5 | 4.3 | 0.00 | 0.00 | 0.00 | 23 | 1018.0 |
| 20260510045529 | 57 | 24 | 0.9 | 1.7 | 0.00 | 0.00 | 0.00 | 23 | 1018.0 |
| 20260510045029 | 57 | 23 | 2.6 | 3.5 | 0.00 | 0.00 | 0.00 | 23 | 1018.0 |
| 20260510044529 | 57 | 0 | 0.0 | 0.0 | 0.00 | 0.00 | 0.00 | 22 | 1018.0 |
| 20260510044029 | 57 | 0 | 0.0 | 0.0 | 0.00 | 0.00 | 0.00 | 24 | 1018.0 |
| 20260510043529 | 57 | 98 | 2.6 | 2.6 | 0.00 | 0.00 | 0.00 | 23 | 1018.0 |
| 20260510043029 | 57 | 58 | 0.9 | 2.6 | 0.00 | 0.00 | 0.00 | 25 | 1018.0 |
| 20260510042529 | 57 | 0 | 0.0 | 0.0 | 0.00 | 0.00 | 0.00 | 29 | 1018.0 |
| 20260510042029 | 58 | 0 | 0.0 | 0.0 | 0.00 | 0.00 | 0.00 | 25 | 1018.0 |
| 20260510041530 | 58 | 0 | 0.0 | 0.0 | 0.00 | 0.00 | 0.00 | 22 | 1018.0 |
| 20260510041031 | 58 | 0 | 0.0 | 0.0 | 0.00 | 0.00 | 0.00 | 21 | 1018.0 |
| 20260510040529 | 59 | 0 | 0.0 | 0.0 | 0.00 | 0.00 | 0.00 | 23 | 1018.0 |
| 20260510040031 | 59 | 0 | 0.0 | 0.0 | 0.00 | 0.00 | 0.00 | 22 | 1018.0 |
| 20260510035529 | 59 | 0 | 0.0 | 0.0 | 0.00 | 0.00 | 0.00 | 21 | 1018.0 |
| 20260510035029 | 59 | 0 | 0.0 | 0.0 | 0.00 | 0.00 | 0.00 | 20 | 1018.0 |
| 20260510034530 | 60 | 2 | 1.7 | 3.5 | 0.00 | 0.00 | 0.00 | 22 | 1018.0 |
| 20260510034029 | 60 | 20 | 3.5 | 4.3 | 0.00 | 0.00 | 0.00 | 20 | 1018.0 |
| 20260510033530 | 60 | 30 | 2.6 | 3.5 | 0.00 | 0.00 | 0.00 | 20 | 1018.0 |
| 20260510033029 | 60 | 27 | 1.7 | 3.5 | 0.00 | 0.00 | 0.00 | 20 | 1018.0 |
| 20260510032530 | 60 | 44 | 2.6 | 3.5 | 0.00 | 0.00 | 0.00 | 19 | 1018.0 |
| 20260510032031 | 61 | 59 | 2.6 | 2.6 | 0.00 | 0.00 | 0.00 | 18 | 1017.0 |
| 20260510031532 | 62 | 52 | 2.6 | 2.6 | 0.00 | 0.00 | 0.00 | 20 | 1017.0 |
| 20260510031029 | 62 | 7 | 0.9 | 0.9 | 0.00 | 0.00 | 0.00 | 19 | 1017.0 |
| 20260510030531 | 63 | 47 | 0.0 | 1.7 | 0.00 | 0.00 | 0.00 | 18 | 1017.0 |
| 20260510030031 | 63 | 353 | 2.6 | 5.2 | 0.00 | 0.00 | 0.00 | 16 | 1017.0 |
| 20260510025529 | 64 | 331 | 1.7 | 4.3 | 0.00 | 0.00 | 0.00 | 16 | 1017.0 |
| 20260510025029 | 64 | 325 | 0.9 | 4.3 | 0.00 | 0.00 | 0.00 | 15 | 1017.0 |
| 20260510024529 | 64 | 350 | 0.9 | 3.5 | 0.00 | 0.00 | 0.00 | 16 | 1017.0 |
| 20260510024029 | 65 | 333 | 2.6 | 4.3 | 0.00 | 0.00 | 0.00 | 15 | 1017.0 |
| 20260510023529 | 65 | 336 | 4.3 | 7.8 | 0.00 | 0.00 | 0.00 | 14 | 1017.0 |
| 20260510023030 | 66 | 328 | 6.1 | 8.7 | 0.00 | 0.00 | 0.00 | 13 | 1017.0 |
| 20260510022529 | 67 | 332 | 7.0 | 9.6 | 0.00 | 0.00 | 0.00 | 14 | 1017.0 |
| 20260510022031 | 68 | 333 | 6.1 | 7.8 | 0.00 | 0.00 | 0.00 | 13 | 1017.0 |
| 20260510021529 | 69 | 339 | 7.0 | 9.6 | 0.00 | 0.00 | 0.00 | 13 | 1017.0 |
| 20260510021031 | 70 | 357 | 7.0 | 8.7 | 0.00 | 0.00 | 0.00 | 12 | 1017.0 |
| 20260510020530 | 70 | 349 | 5.2 | 7.8 | 0.00 | 0.00 | 0.00 | 11 | 1017.0 |
| 20260510020029 | 70 | 357 | 4.3 | 6.1 | 0.00 | 0.00 | 0.00 | 11 | 1017.0 |
| 20260510015531 | 71 | 340 | 3.5 | 7.8 | 0.00 | 0.00 | 0.00 | 11 | 1017.0 |
| 20260510015029 | 71 | 345 | 7.0 | 15.6 | 0.00 | 0.00 | 0.00 | 10 | 1017.0 |
| 20260510014530 | 71 | 345 | 4.3 | 7.0 | 0.00 | 0.00 | 0.00 | 11 | 1017.0 |
| 20260510014029 | 72 | 33 | 5.2 | 10.4 | 0.00 | 0.00 | 0.00 | 10 | 1017.0 |
| 20260510013529 | 72 | 357 | 7.8 | 11.3 | 0.00 | 0.00 | 0.00 | 10 | 1017.0 |
| 20260510013030 | 72 | 343 | 6.1 | 9.6 | 0.00 | 0.00 | 0.00 | 11 | 1017.0 |
| 20260510012529 | 72 | 345 | 5.2 | 8.7 | 0.00 | 0.00 | 0.00 | 12 | 1017.0 |
| 20260510012030 | 72 | 303 | 4.3 | 7.8 | 0.00 | 0.00 | 0.00 | 11 | 1017.0 |
| 20260510011529 | 72 | 319 | 3.5 | 7.0 | 0.00 | 0.00 | 0.00 | 10 | 1017.0 |
| 20260510011030 | 72 | 317 | 2.6 | 6.1 | 0.00 | 0.00 | 0.00 | 11 | 1017.0 |
| 20260510010529 | 72 | 332 | 7.0 | 11.3 | 0.00 | 0.00 | 0.00 | 10 | 1017.0 |
| 20260510010030 | 72 | 337 | 6.1 | 10.4 | 0.00 | 0.00 | 0.00 | 11 | 1017.0 |
| 20260510005529 | 72 | 351 | 7.8 | 15.6 | 0.00 | 0.00 | 0.00 | 11 | 1017.0 |
| 20260510005030 | 72 | 331 | 7.0 | 12.2 | 0.00 | 0.00 | 0.00 | 10 | 1017.0 |
| 20260510004529 | 72 | 325 | 7.8 | 13.9 | 0.00 | 0.00 | 0.00 | 11 | 1017.0 |
| 20260510004030 | 72 | 335 | 7.0 | 13.9 | 0.00 | 0.00 | 0.00 | 10 | 1017.0 |
| 20260510003529 | 72 | 332 | 7.8 | 14.8 | 0.00 | 0.00 | 0.00 | 12 | 1017.0 |
| 20260510003031 | 72 | 313 | 7.0 | 15.6 | 0.00 | 0.00 | 0.00 | 12 | 1017.0 |
| 20260510002529 | 72 | 14 | 5.2 | 12.2 | 0.00 | 0.00 | 0.00 | 12 | 1017.0 |
| 20260510002030 | 72 | 340 | 7.8 | 15.6 | 0.00 | 0.00 | 0.00 | 10 | 1017.0 |
| 20260510001530 | 72 | 316 | 7.8 | 11.3 | 0.00 | 0.00 | 0.00 | 11 | 1017.0 |
| 20260510001029 | 71 | 295 | 9.6 | 13.9 | 0.00 | 0.00 | 0.00 | 10 | 1017.0 |
| 20260510000529 | 72 | 293 | 11.3 | 19.1 | 0.00 | 0.00 | 0.00 | 11 | 1017.0 |
| 20260510000030 | 72 | 298 | 10.4 | 13.9 | 0.00 | 0.00 | 0.00 | 11 | 1017.0 |
| 20260509235529 | 71 | 297 | 9.6 | 18.2 | 0.00 | 0.00 | 0.00 | 10 | 1017.0 |
| 20260509235029 | 71 | 351 | 8.7 | 16.5 | 0.00 | 0.00 | 0.00 | 10 | 1017.0 |
| 20260509234530 | 71 | 316 | 7.8 | 12.2 | 0.00 | 0.00 | 0.00 | 9 | 1017.0 |
| 20260509234030 | 71 | 320 | 9.6 | 20.9 | 0.00 | 0.00 | 0.00 | 9 | 1017.0 |
| 20260509233530 | 71 | 298 | 11.3 | 17.4 | 0.00 | 0.00 | 0.00 | 8 | 1017.0 |
| 20260509233031 | 71 | 309 | 10.4 | 17.4 | 0.00 | 0.00 | 0.00 | 10 | 1017.0 |
| 20260509232531 | 71 | 329 | 10.4 | 14.8 | 0.00 | 0.00 | 0.00 | 11 | 1017.0 |
| 20260509232030 | 72 | 297 | 8.7 | 13.9 | 0.00 | 0.00 | 0.00 | 13 | 1017.0 |
| 20260509231531 | 72 | 319 | 6.1 | 10.4 | 0.00 | 0.00 | 0.00 | 13 | 1017.0 |
| 20260509231030 | 72 | 333 | 9.6 | 15.6 | 0.00 | 0.00 | 0.00 | 11 | 1017.0 |
| 20260509230530 | 72 | 304 | 7.0 | 10.4 | 0.00 | 0.00 | 0.00 | 14 | 1017.0 |
| 20260509230031 | 72 | 21 | 11.3 | 14.8 | 0.00 | 0.00 | 0.00 | 13 | 1017.0 |
| 20260509225529 | 71 | 323 | 7.8 | 17.4 | 0.00 | 0.00 | 0.00 | 13 | 1017.0 |
| 20260509225029 | 71 | 294 | 14.8 | 20.9 | 0.00 | 0.00 | 0.00 | 14 | 1017.0 |
| 20260509224529 | 71 | 297 | 8.7 | 15.6 | 0.00 | 0.00 | 0.00 | 14 | 1017.0 |
| 20260509224029 | 71 | 331 | 13.0 | 21.7 | 0.00 | 0.00 | 0.00 | 14 | 1017.0 |
| 20260509223530 | 71 | 323 | 7.0 | 13.0 | 0.00 | 0.00 | 0.00 | 15 | 1017.0 |
| 20260509223030 | 71 | 293 | 11.3 | 23.5 | 0.00 | 0.00 | 0.00 | 15 | 1017.0 |
| 20260509222530 | 71 | 338 | 10.4 | 14.8 | 0.00 | 0.00 | 0.00 | 15 | 1017.0 |
| 20260509222035 | 71 | 329 | 12.2 | 18.2 | 0.00 | 0.00 | 0.00 | 14 | 1017.0 |
| 20260509221530 | 72 | 318 | 9.6 | 20.0 | 0.00 | 0.00 | 0.00 | 15 | 1017.0 |
| 20260509221030 | 72 | 305 | 7.8 | 13.0 | 0.00 | 0.00 | 0.00 | 14 | 1017.0 |
| 20260509220530 | 72 | 326 | 9.6 | 14.8 | 0.00 | 0.00 | 0.00 | 16 | 1017.0 |
| 20260509220029 | 72 | 336 | 10.4 | 13.9 | 0.00 | 0.00 | 0.00 | 16 | 1017.0 |
| 20260509215529 | 71 | 319 | 7.0 | 10.4 | 0.00 | 0.00 | 0.00 | 17 | 1017.0 |
| 20260509215029 | 71 | 316 | 7.8 | 17.4 | 0.00 | 0.00 | 0.00 | 17 | 1017.0 |
| 20260509214530 | 71 | 296 | 11.3 | 17.4 | 0.00 | 0.00 | 0.00 | 18 | 1017.0 |
| 20260509214029 | 71 | 335 | 11.3 | 19.1 | 0.00 | 0.00 | 0.00 | 18 | 1017.0 |
| 20260509213530 | 71 | 301 | 6.1 | 14.8 | 0.00 | 0.00 | 0.00 | 17 | 1017.0 |
| 20260509213031 | 71 | 325 | 7.8 | 16.5 | 0.00 | 0.00 | 0.00 | 17 | 1017.0 |
| 20260509212529 | 71 | 297 | 7.8 | 13.9 | 0.00 | 0.00 | 0.00 | 17 | 1017.0 |
| 20260509212029 | 70 | 320 | 7.0 | 13.9 | 0.00 | 0.00 | 0.00 | 17 | 1017.0 |
| 20260509211529 | 70 | 327 | 11.3 | 20.0 | 0.00 | 0.00 | 0.00 | 17 | 1017.0 |
| 20260509211029 | 71 | 313 | 6.1 | 12.2 | 0.00 | 0.00 | 0.00 | 17 | 1017.0 |
| 20260509210529 | 71 | 318 | 8.7 | 15.6 | 0.00 | 0.00 | 0.00 | 17 | 1017.0 |
| 20260509205531 | 71 | 34 | 10.4 | 14.8 | 0.00 | 0.00 | 0.00 | 17 | 1017.0 |
| 20260509205031 | 71 | 324 | 7.8 | 14.8 | 0.00 | 0.00 | 0.00 | 19 | 1018.0 |
| 20260509204530 | 71 | 313 | 6.1 | 10.4 | 0.00 | 0.00 | 0.00 | 17 | 1018.0 |
| 20260509204031 | 70 | 294 | 9.6 | 14.8 | 0.00 | 0.00 | 0.00 | 18 | 1018.0 |
| 20260509203529 | 70 | 291 | 7.8 | 14.8 | 0.00 | 0.00 | 0.00 | 18 | 1018.0 |
| 20260509203029 | 70 | 314 | 11.3 | 17.4 | 0.00 | 0.00 | 0.00 | 17 | 1018.0 |
| 20260509202529 | 70 | 340 | 6.1 | 11.3 | 0.00 | 0.00 | 0.00 | 16 | 1018.0 |
| 20260509202029 | 70 | 328 | 7.8 | 14.8 | 0.00 | 0.00 | 0.00 | 17 | 1018.0 |
| 20260509201529 | 70 | 326 | 11.3 | 19.1 | 0.00 | 0.00 | 0.00 | 18 | 1018.0 |